Location: Dreilärchen
(47.9312°N, 8.6113°E)
Time: 02:45:55
(UTC+00:00)

Lacrosse 5 - Pass Details

Date: 26 May 2022
Orbit: 714 x 724 km, 57.0° (Epoch: 09 March)

Event Time Altitude Azimuth Distance (km) Brightness Sun altitude
Exits shadow 00:58:31 30° 179° (S) 1,285 2.7 -17.7°
Maximum altitude 01:00:24 42° 132° (SE) 1,028 2.5 -17.6°
Drops below altitude 10° 01:05:11 10° 63° (ENE) 2,217 5.2 -17.2°
Sets 01:07:40 0° 56° (NE) 3,140 6.2 -17.1°
